Location: ?ernice
(48.8383°N, 14.3803°E)
Time: 17:56:46
(UTC+00:00)

Cosmos 405 Rocket - Pass Details

Date: 23 May 2024
Orbit: 456 x 504 km, 81.3° (Epoch: 13 June)

Event Time Altitude Azimuth Distance (km) Brightness Sun altitude
Rises 01:34:03 0° 355° (N) 2,515 7.0 -12.4°
Reaches altitude 10° 01:36:15 10° 4° (N) 1,641 6.2 -12.2°
Maximum altitude 01:39:36 36° 73° (ENE) 765 4.1 -11.9°
Drops below altitude 10° 01:42:58 10° 142° (SE) 1,653 5.1 -11.5°
Sets 01:45:11 0° 151° (SSE) 2,537 6.0 -11.3°
